Weather in Ivacevichi

Belarus     52°42′32″N   25°20′19″E
temp.,
°C
wind,
m/s
gust,
m/s
humid.,
%
clouds,
%
prec.,
mm/h
press.,
hPa
HPBL,
m
13 april, tue
tue1300:00+11sse3960100 0.0 1018221
03:00+11se356192 0.0 1018129
06:00+9ese336094 0.0 101867
09:00+11se236267 0.0 1019222
12:00+15se344992 0.0 1018933
15:00+13nw5464100 0.0 1017458
18:00+9nnw787996 0.0 1018496
21:00+5nnw71187100 0.0 1018430
14 april, wed
wed1400:00+4nnw61090100 0.0 1018428
03:00+4n6991100 0.0 1017427
06:00+3n6992100 0.0 1016409
09:00+3n6992100 0.1 1016394
12:00+4n5890100 0.0 1015423
15:00+5n5891100 0.4 1015420
18:00+4n5994100 1.1 1014319
21:00+4n4996100 2.4 1014300
15 april, thu
thu1500:00+5nnw3598100 0.8 1013173
03:00+5sw1199100 1.4 101361
06:00+5ssw2398100 1.8 1014104
09:00+5wsw1297100 3.9 101587
12:00+6nnw1193100 0.7 1016111
15:00+10nnw327997 0.8 1016478
18:00+11n467673 0.1 1015743
21:00+8nne598899 0.4 1016487
16 april, fri
fri1600:00+6n5991100 0.0 1015431
03:00+5n5992100 0.0 1015486
06:00+5n5994100 0.2 1014463
09:00+5n5995100 1.0 1014411
12:00+7nne4894100 0.3 1014351
15:00+11nne5779100 0.6 1014979
18:00+9ne51093100 4.5 1014642
21:00+8ne379571 4.9 1016227
17 april, sat
sat1700:00+7nne499753 0.0 1016211
03:00+7ne3897100 0.1 1017302
06:00+8nne2598100 0.8 1017190
09:00+9ene469293 1.2 1018549
12:00+12e675928 0.6 10191575
15:00+13e775030 0.7 10191931
18:00+12ese5656100 0.0 10201278
21:00+8sse2278100 0.0 102032